| time (UTC) | temp F | wind direction | speed MPH | gust MPH | rain 1hr in | rain 24hr in | rain mn in | humidity % | barometer mb |
| 20260906064539 | 75 | 326 | 0.0 | 0.0 | 0.00 | 0.41 | 0.00 | 90 | 1009.1 |
| 20260906063035 | 75 | 326 | 0.0 | 0.0 | 0.00 | 0.41 | 0.00 | 90 | 1009.3 |
| 20260906061535 | 75 | 326 | 0.0 | 0.0 | 0.00 | 0.41 | 0.00 | 90 | 1009.3 |
| 20260906060041 | 75 | 326 | 0.0 | 0.0 | 0.00 | 0.41 | 0.00 | 90 | 1009.5 |
| 20260906054531 | 75 | 326 | 0.0 | 0.0 | 0.00 | 0.41 | 0.00 | 90 | 1009.6 |
| 20260906053032 | 75 | 326 | 0.0 | 0.0 | 0.00 | 0.41 | 0.00 | 89 | 1009.9 |
| 20260906051527 | 76 | 326 | 0.0 | 0.0 | 0.00 | 0.41 | 0.00 | 88 | 1010.0 |
| 20260906050027 | 76 | 326 | 0.0 | 0.0 | 0.00 | 0.41 | 0.00 | 87 | 1010.1 |
| 20260906044527 | 76 | 326 | 0.0 | 0.0 | 0.00 | 0.41 | 0.00 | 87 | 1010.1 |
| 20260906043026 | 77 | 326 | 0.0 | 0.0 | 0.00 | 0.41 | 0.00 | 88 | 1010.1 |
| 20260906041527 | 77 | 326 | 2.0 | 5.0 | 0.00 | 0.41 | 0.00 | 88 | 1010.3 |
| 20260906040026 | 76 | 326 | 0.0 | 0.0 | 0.00 | 0.41 | 0.00 | 90 | 1010.4 |
| 20260906034516 | 76 | 326 | 0.0 | 0.0 | 0.00 | 0.41 | 0.41 | 92 | 1010.5 |
| 20260906033017 | 77 | 326 | 0.0 | 0.0 | 0.00 | 0.41 | 0.41 | 92 | 1010.5 |
| 20260906031531 | 77 | 326 | 0.0 | 0.0 | 0.00 | 0.41 | 0.41 | 93 | 1010.4 |
| 20260906030016 | 77 | 326 | 0.0 | 0.0 | 0.00 | 0.41 | 0.41 | 93 | 1010.4 |
| 20260906024514 | 77 | 326 | 0.0 | 0.0 | 0.00 | 0.41 | 0.41 | 93 | 1010.1 |
| 20260906023014 | 77 | 326 | 0.0 | 0.0 | 0.00 | 0.41 | 0.41 | 93 | 1010.2 |
| 20260906021515 | 77 | 326 | 0.0 | 0.0 | 0.00 | 0.41 | 0.41 | 92 | 1009.9 |
| 20260906020013 | 77 | 326 | 0.0 | 0.0 | 0.00 | 0.41 | 0.41 | 92 | 1009.9 |
| 20260906014519 | 77 | 326 | 0.0 | 0.0 | 0.00 | 0.41 | 0.41 | 93 | 1009.8 |
| 20260906013012 | 77 | 326 | 0.0 | 0.0 | 0.00 | 0.41 | 0.41 | 93 | 1009.9 |
| 20260906011512 | 77 | 326 | 0.0 | 0.0 | 0.00 | 0.41 | 0.41 | 92 | 1009.5 |
| 20260906010012 | 77 | 326 | 0.0 | 0.0 | 0.00 | 0.41 | 0.41 | 92 | 1009.5 |
| 20260906004511 | 77 | 326 | 0.0 | 0.0 | 0.00 | 0.41 | 0.41 | 91 | 1009.4 |
| 20260906003010 | 77 | 326 | 0.0 | 0.0 | 0.00 | 0.41 | 0.41 | 90 | 1009.2 |
| 20260906001509 | 78 | 326 | 0.0 | 0.0 | 0.00 | 0.41 | 0.41 | 90 | 1009.2 |
| 20260906000009 | 78 | 326 | 0.0 | 0.0 | 0.00 | 0.41 | 0.41 | 88 | 1009.0 |
| 20260905234508 | 79 | 326 | 0.0 | 0.0 | 0.00 | 0.41 | 0.41 | 87 | 1008.8 |
| 20260905233008 | 79 | 326 | 0.0 | 0.0 | 0.00 | 0.41 | 0.41 | 86 | 1008.7 |
| 20260905231508 | 80 | 326 | 0.0 | 0.0 | 0.00 | 0.41 | 0.41 | 86 | 1008.7 |
| 20260905230007 | 81 | 326 | 0.0 | 0.0 | 0.00 | 0.41 | 0.41 | 83 | 1008.9 |
| 20260905224506 | 81 | 326 | 0.0 | 0.0 | 0.00 | 0.41 | 0.41 | 81 | 1008.5 |
| 20260905223006 | 82 | 326 | 0.0 | 0.0 | 0.00 | 0.41 | 0.41 | 81 | 1008.3 |
| 20260905221506 | 80 | 326 | 0.0 | 0.0 | 0.00 | 0.41 | 0.41 | 82 | 1008.4 |
| 20260905220004 | 79 | 326 | 0.0 | 0.0 | 0.00 | 0.41 | 0.41 | 84 | 1008.4 |
| 20260905214503 | 79 | 326 | 0.0 | 0.0 | 0.00 | 0.41 | 0.41 | 87 | 1008.9 |
| 20260905213002 | 78 | 326 | 0.0 | 2.0 | 0.00 | 0.41 | 0.41 | 87 | 1009.2 |
| 20260905211503 | 77 | 326 | 0.0 | 2.0 | 0.00 | 0.41 | 0.41 | 89 | 1009.6 |
| 20260905210001 | 76 | 326 | 0.0 | 4.0 | 0.00 | 0.41 | 0.41 | 91 | 1009.5 |
| 20260905204500 | 76 | 326 | 0.0 | 0.0 | 0.00 | 0.41 | 0.41 | 92 | 1009.5 |
| 20260905203101 | 76 | 326 | 0.0 | 0.0 | 0.00 | 0.41 | 0.41 | 91 | 1009.1 |
| 20260905201600 | 76 | 326 | 0.0 | 6.0 | 0.00 | 0.41 | 0.41 | 90 | 1009.3 |
| 20260905200128 | 75 | 326 | 0.0 | 0.0 | 0.00 | 0.41 | 0.41 | 92 | 1009.7 |
| 20260905194600 | 75 | 326 | 0.0 | 1.0 | 0.00 | 0.41 | 0.41 | 91 | 1009.8 |
| 20260905193058 | 74 | 326 | 0.0 | 0.0 | 0.00 | 0.41 | 0.41 | 93 | 1009.6 |
| 20260905191557 | 74 | 326 | 0.0 | 0.0 | 0.41 | 0.41 | 0.41 | 90 | 1008.8 |
| 20260905190059 | 74 | 326 | 0.0 | 1.0 | 0.41 | 0.41 | 0.41 | 91 | 1008.7 |
| 20260905184553 | 74 | 326 | 1.0 | 9.0 | 0.41 | 0.41 | 0.41 | 88 | 1009.5 |
| 20260905183050 | 77 | 124 | 2.0 | 28.0 | 0.40 | 0.40 | 0.40 | 69 | 1009.7 |
| 20260905181548 | 89 | 301 | 24.0 | 41.0 | 0.00 | 0.00 | 0.00 | 58 | 1010.8 |
| 20260905180108 | 93 | 310 | 11.0 | 17.0 | 0.00 | 0.00 | 0.00 | 54 | 1009.2 |
| 20260905174544 | 93 | 342 | 0.0 | 0.0 | 0.00 | 0.00 | 0.00 | 55 | 1009.5 |
| 20260905173054 | 92 | 342 | 0.0 | 0.0 | 0.00 | 0.00 | 0.00 | 61 | 1009.9 |
| 20260905171551 | 92 | 342 | 0.0 | 0.0 | 0.00 | 0.00 | 0.00 | 63 | 1010.1 |
| 20260905170038 | 92 | 342 | 5.0 | 10.0 | 0.00 | 0.00 | 0.00 | 60 | 1010.4 |
| 20260905164542 | 92 | 21 | 2.0 | 7.0 | 0.00 | 0.00 | 0.00 | 63 | 1010.4 |
| 20260905163034 | 92 | 24 | 0.0 | 2.0 | 0.00 | 0.00 | 0.00 | 63 | 1010.6 |
| 20260905161530 | 91 | 23 | 0.0 | 1.0 | 0.00 | 0.00 | 0.00 | 65 | 1011.0 |
| 20260905160045 | 89 | 23 | 0.0 | 0.0 | 0.00 | 0.00 | 0.00 | 70 | 1011.0 |
| 20260905154522 | 87 | 23 | 0.0 | 2.0 | 0.00 | 0.00 | 0.00 | 74 | 1011.0 |
| 20260905153022 | 86 | 23 | 0.0 | 0.0 | 0.00 | 0.00 | 0.00 | 74 | 1011.2 |
| 20260905151516 | 85 | 23 | 0.0 | 0.0 | 0.00 | 0.00 | 0.00 | 75 | 1011.2 |
| 20260905150013 | 85 | 23 | 0.0 | 1.0 | 0.00 | 0.00 | 0.00 | 76 | 1011.3 |
| 20260905144514 | 84 | 23 | 0.0 | 0.0 | 0.00 | 0.00 | 0.00 | 78 | 1011.4 |
| 20260905143007 | 82 | 23 | 0.0 | 2.0 | 0.00 | 0.00 | 0.00 | 79 | 1011.1 |
| 20260905141510 | 81 | 23 | 0.0 | 1.0 | 0.00 | 0.00 | 0.00 | 80 | 1011.3 |
| 20260905140002 | 80 | 23 | 0.0 | 1.0 | 0.00 | 0.00 | 0.00 | 83 | 1011.4 |
| 20260905134501 | 79 | 23 | 0.0 | 0.0 | 0.00 | 0.00 | 0.00 | 84 | 1011.5 |
| 20260905133002 | 79 | 23 | 0.0 | 0.0 | 0.00 | 0.00 | 0.00 | 85 | 1011.5 |
| 20260905131600 | 78 | 23 | 0.0 | 0.0 | 0.00 | 0.00 | 0.00 | 86 | 1011.5 |
| 20260905130100 | 78 | 23 | 0.0 | 0.0 | 0.00 | 0.00 | 0.00 | 86 | 1011.6 |
| 20260905124600 | 77 | 23 | 0.0 | 0.0 | 0.00 | 0.00 | 0.00 | 87 | 1011.7 |
| 20260905123104 | 77 | 23 | 0.0 | 0.0 | 0.00 | 0.00 | 0.00 | 87 | 1011.6 |
| 20260905121600 | 77 | 23 | 0.0 | 0.0 | 0.00 | 0.00 | 0.00 | 88 | 1011.5 |
| 20260905120107 | 77 | 23 | 0.0 | 0.0 | 0.00 | 0.00 | 0.00 | 86 | 1011.6 |
| 20260905114608 | 77 | 23 | 0.0 | 0.0 | 0.00 | 0.00 | 0.00 | 89 | 1011.4 |
| 20260905113058 | 77 | 23 | 0.0 | 0.0 | 0.00 | 0.00 | 0.00 | 89 | 1011.3 |
| 20260905111641 | 77 | 23 | 1.0 | 4.0 | 0.00 | 0.00 | 0.00 | 90 | 1010.9 |
| 20260905110051 | 77 | 23 | 0.0 | 6.0 | 0.00 | 0.00 | 0.00 | 90 | 1010.8 |
| 20260905104550 | 76 | 23 | 0.0 | 3.0 | 0.00 | 0.00 | 0.00 | 91 | 1010.6 |
| 20260905103053 | 76 | 23 | 0.0 | 0.0 | 0.00 | 0.00 | 0.00 | 89 | 1010.6 |
| 20260905101549 | 76 | 23 | 0.0 | 0.0 | 0.00 | 0.00 | 0.00 | 88 | 1010.6 |
| 20260905100050 | 77 | 23 | 0.0 | 0.0 | 0.00 | 0.00 | 0.00 | 87 | 1010.5 |
| 20260905094546 | 77 | 23 | 0.0 | 0.0 | 0.00 | 0.00 | 0.00 | 86 | 1010.4 |
| 20260905093052 | 78 | 23 | 0.0 | 0.0 | 0.00 | 0.00 | 0.00 | 86 | 1010.4 |
| 20260905091542 | 78 | 23 | 0.0 | 0.0 | 0.00 | 0.00 | 0.00 | 85 | 1010.5 |
| 20260905090039 | 79 | 23 | 0.0 | 2.0 | 0.00 | 0.00 | 0.00 | 86 | 1010.4 |
| 20260905084539 | 79 | 23 | 0.0 | 0.0 | 0.00 | 0.00 | 0.00 | 84 | 1010.5 |
| 20260905083036 | 79 | 23 | 0.0 | 0.0 | 0.00 | 0.00 | 0.00 | 84 | 1010.7 |
| 20260905081535 | 79 | 23 | 0.0 | 0.0 | 0.00 | 0.00 | 0.00 | 83 | 1010.6 |
| 20260905080035 | 79 | 23 | 0.0 | 0.0 | 0.00 | 0.00 | 0.00 | 83 | 1010.8 |
| 20260905074531 | 80 | 23 | 0.0 | 0.0 | 0.00 | 0.00 | 0.00 | 83 | 1010.9 |
| 20260905073036 | 80 | 23 | 0.0 | 0.0 | 0.00 | 0.00 | 0.00 | 85 | 1010.9 |
| 20260905071528 | 80 | 23 | 0.0 | 0.0 | 0.00 | 0.00 | 0.00 | 88 | 1011.0 |
| 20260905070044 | 80 | 23 | 0.0 | 0.0 | 0.00 | 0.00 | 0.00 | 90 | 1011.2 |